STARLINK-5040 (53914 NORAD) Tracking and Keplerian Element Data

This shows tracking and keplerian element data for the satellite.

Feedback or suggestion? Click here.




ElementValue
Catalog53914
NameSTARLINK-5040
Epoch Orbit130
Epoch Day324.91667824
Epoch Year2022
RAAN331.1454
Inclination53.2146
Eccentricity0.0004033
Argument of Perigee2.5898
Mean Anonmoly12.8364
Mean Motion15.73167238
Decay Rate1.101E-05
L11 53914U 22119AE 22324.91667824 .00001101 00000+0 12305-4 0 9990
L22 53914 53.2146 331.1454 0004033 2.5898 12.8364 15.73167238 1309



Live tracking and technical data element details for STARLINK-5040 (NORAD 53914). STARLINK-5040 can be tracked NOW for your location showing map with azimuth and elevation plus other details from your city location.







IsCatalogInMostPopularTable: catalog: 53914, numindb: 1
Update: records affected: 1



GetName: 53914 STARLINK-5040

Hit Count: updated at: Mon, 28 Nov 2022 22:41:55 GMT